Regional Weather Roundup
Issued by NWS Little Rock, AR

Home | Current Version | Previous Version | Text Only | Print | Product List | Glossary Off
Versions: 1 2 3 4 5 6 7 8 9 10 11 12 13 14 15 16 17 18 19 20 21 22 23 24 25 26 27 28 29 30 31

000
ASUS44 KLZK 221705
RWRLZK

WEATHER ROUNDUP FOR ARKANSAS
NATIONAL WEATHER SERVICE LITTLE ROCK AR
1200 PM CDT MON MAY 22 2017

NOTE: "FAIR" INDICATES FEW OR NO CLOUDS BELOW 12,000 FEET WITH NO
SIGNIFICANT WEATHER AND/OR OBSTRUCTIONS TO VISIBILITY.

ARZ001-003-010-029-221800-
NORTHWEST ARKANSAS

CITY           SKY/WX    TMP DP  RH WIND       PRES   REMARKS
FAYETTEVILLE   SUNNY     72  48  42 S10       30.10F
FORT SMITH     SUNNY     75  47  36 E10       30.08F
HARRISON       SUNNY     69  48  47 SE9       30.12F
BENTONVILLE    SUNNY     72  48  43 SE12      30.11F
ROGERS         SUNNY     72  48  42 S10       30.11F
SILOAM SPGS    SUNNY     72  50  46 SW12      30.09F
SPRINGDALE     MOSUNNY   70  50  49 SE9G16    30.12F
$$

ARZ004-005-016-221800-
NORTH CENTRAL ARKANSAS

CITY           SKY/WX    TMP DP  RH WIND       PRES   REMARKS
BATESVILLE     SUNNY     72  48  43 NE9       30.12F
FLIPPIN        SUNNY     70  46  43 E5        30.10F
MTN HOME       SUNNY     69  48  47 VRB7G17   30.11F
$$

ARZ040-041-221800-
WEST CENTRAL ARKANSAS

CITY           SKY/WX    TMP DP  RH WIND       PRES   REMARKS
MENA           SUNNY     73  52  46 E5        30.09F
MOUNT IDA      SUNNY     73  46  38 E6        30.07F
$$

ARZ009-017-025-026-028-221800-
NORTHEAST ARKANSAS

CITY           SKY/WX    TMP DP  RH WIND       PRES   REMARKS
JONESBORO      CLOUDY    71  48  43 E12       30.10F
NEWPORT        CLOUDY    70  53  54 E13       30.10F
WALNUT RIDGE   PTSUNNY   70  50  49 E3        30.11F
BLYTHEVILLE    CLOUDY    70  51  51 SE10      30.11F
NW BLYTHEVILLE CLOUDY    70  50  49 E8G17     30.10F
$$

ARZ022-023-033-042-044-221800-
CENTRAL ARKANSAS

CITY           SKY/WX    TMP DP  RH WIND       PRES   REMARKS
LITTLE ROCK    MOSUNNY   72  50  45 E13G23    30.11S
N LITTLE ROCK    N/A     71  50  46 E10       30.11F
JACKSONVILLE   SUNNY     71  52  50 NE9       30.09F
CONWAY           N/A     72  52  49 NE10      30.09F
SEARCY         CLOUDY    71  52  50 E8        30.12F
HOT SPRINGS    SUNNY     72  49  44 E10       30.09F
RUSSELLVILLE   SUNNY     72  49  44 VRB3      30.09F
CLINTON        FAIR      72  48  43 VRB7      30.11F
$$

ARZ036-221800-
EAST ARKANSAS

CITY           SKY/WX    TMP DP  RH WIND       PRES   REMARKS
WEST MEMPHIS   CLOUDY    71  53  52 NE13      30.08F
$$

ARZ050-053-066-070-073-221800-
SOUTHWEST ARKANSAS

CITY           SKY/WX    TMP DP  RH WIND       PRES   REMARKS
ARKADELPHIA      N/A     67  55  65 VRB5      30.10F
CAMDEN         LGT RAIN  64  55  72 NE6       30.09F
TEXARKANA      MOSUNNY   68  56  65 E9        30.07F
EL DORADO      LGT RAIN  62  59  90 NE6       30.08F
DE QUEEN       SUNNY     74  50  42 E15       30.06F
$$

ARZ056-057-069-221800-
SOUTHEAST ARKANSAS

CITY           SKY/WX    TMP DP  RH WIND       PRES   REMARKS
PINE BLUFF     LGT RAIN  65  56  72 E3        30.12R
STUTTGART      CLOUDY    68  46  45 NE9       30.11S
MONTICELLO     CLOUDY    64  59  83 NE5       30.08F

$$






USA.gov is the U.S. government's official web portal to all federal, state and local government web resources and services.